This demonstration page uses our WeatherBlox Daily Observations layout. Learn more.

Left ArrowRight Arrow

Hourly Observations for July 31, 2015

Temp ( °F °C ) Dew Point ( °F °C ) Humidity (%) Winds ( mph kmh ) Pressure ( in mb ) Visibility ( mi km ) Precip ( " mm )
12:52 am 00:52 Clear 72 22.2 62 16.7 71 71 SE 3 6 30.13 1020 10 16 0.00 0.00
1:52 am 01:52 Clear 69 20.6 62 16.7 78 78 Calm 30.13 1020 10 16 0.00 0.00
2:52 am 02:52 Clear 72 22.2 63 17.2 73 73 Calm 30.11 1020 10 16 0.00 0.00
3:52 am 03:52 Clear 71 21.7 63 17.2 76 76 Calm 30.12 1020 10 16 0.00 0.00
4:52 am 04:52 Partly Cloudy 71 21.7 63 17.2 76 76 Calm 30.13 1020 10 16 0.00 0.00
5:52 am 05:52 Partly Cloudy 70 21.1 64 17.8 82 82 Calm 30.14 1021 10 16 0.00 0.00
6:52 am 06:52 Sunny 70 21.1 65 18.3 84 84 Calm 30.14 1021 10 16 0.00 0.00
7:52 am 07:52 Sunny 73 22.8 65 18.3 76 76 SSW 3 6 30.15 1021 10 16 0.00 0.00
8:52 am 08:52 Sunny 76 24.4 64 17.8 67 67 S 5 7 30.14 1021 10 16 0.00 0.00
9:52 am 09:52 undefined 81 27.2 63 17.2 54 54 SE 3 6 30.14 1021 10 16 0.00 0.00
10:52 am 10:52 Sunny 84 28.9 59 15 43 43 Calm 30.14 1021 10 16 0.00 0.00
11:52 am 11:52 Sunny 86 30 58 14.4 39 39 WSW 7 11 30.14 1021 10 16 0.00 0.00
12:52 pm 12:52 Sunny 87 30.6 56 13.3 35 35 WSW 9 15 30.12 1020 10 16 0.00 0.00
1:52 pm 13:52 Sunny 89 31.7 51 10.6 27 27 WSW 6 9 30.11 1020 10 16 0.00 0.00
2:52 pm 14:52 Sunny 89 31.7 56 13.3 33 33 W 8 13 30.09 1019 10 16 0.00 0.00
3:52 pm 15:52 Sunny 89 31.7 56 13.3 33 33 W 7 11 30.07 1018 10 16 0.00 0.00
4:52 pm 16:52 Sunny 88 31.1 55 12.8 33 33 SW 9 15 30.06 1018 10 16 0.00 0.00
5:52 pm 17:52 Sunny 89 31.7 54 12.2 30 30 W 7 11 30.04 1017 10 16 0.00 0.00
6:52 pm 18:52 Sunny 87 30.6 54 12.2 32 32 W 6 9 30.03 1017 10 16 0.00 0.00
7:52 pm 19:52 Sunny 83 28.3 62 16.7 49 49 SW 3 6 30.04 1017 10 16 0.00 0.00
8:52 pm 20:52 Clear 76 24.4 62 16.7 62 62 SW 5 7 30.05 1018 10 16 0.00 0.00
9:52 pm 21:52 Clear 73 22.8 63 17.2 71 71 S 3 6 30.06 1018 10 16 0.00 0.00
10:52 pm 22:52 Clear 72 22.2 60 15.6 66 66 S 3 6 30.07 1018 10 16 0.00 0.00
11:52 pm 23:52 Clear 71 21.7 60 15.6 68 68 Calm 30.07 1018 10 16 0.00 0.00

Powered by AerisWeather